TIME,�g��[���C[MJ/h],����[MJ/h],�Ɩ�[MJ/h],�~�[[MJ/h],�①��[MJ/h],��y���[MJ/h],�Ǝ��q��[MJ/h],���̑��s��[MJ/h],�u�����`������[MJ/h]
2004/5/1 0:00,0.072,0,0.92016,0.02736,0.37296,0.2376,1.16064,0,-0.28368
2004/5/1 0:15,0,0,0.4464,0.02592,0.46944,0.2376,0.07056,0,-0.05616
2004/5/1 0:30,0,0,0.4608,0.02304,0.04464,0.2376,0.07632,0,-0.00576
2004/5/1 0:45,0,0,0.24336,0.02736,0.24336,0.2376,0.07344,0,0.00432
2004/5/1 1:00,0,0,0.18,0.036,0.47232,0.2376,0.07776,0,-0.0072
2004/5/1 1:15,0,0,0.18288,0.02592,0.2016,0.2376,0.0432,0,0.03312
2004/5/1 1:30,0,0,0.1872,0.02448,0.08064,0.2376,0.07632,0,0.04464
2004/5/1 1:45,0,0,0.1728,0.03168,0.47232,0.1944,0.072,0,0.00576
2004/5/1 2:00,0,0,0.17568,0.02592,0.32688,0.12816,0.07344,0,0.03744
2004/5/1 2:15,0,0,0.17424,0.0216,0,0.12384,0.07632,0,0.07344
2004/5/1 2:30,0,0,0.1728,0.0288,0.44496,0.1224,0.07632,0,0.03024
2004/5/1 2:45,0,0,0.1728,0.02736,0.39888,0.12096,0.0432,0,0.036
2004/5/1 3:00,0,0,0.17424,0.0216,0,0.12528,0.07488,0,0.07632
2004/5/1 3:15,0,0,0.16704,0.0288,0.37008,0.12672,0.07344,0,0.03024
2004/5/1 3:30,0,0,0.17712,0.02592,0.46944,0.12816,0.07488,0,0.01152
2004/5/1 3:45,0,0,0.1656,0.02304,0.01152,0.12816,0.07632,0,0.08208
2004/5/1 4:00,0,0,0.17136,0.02592,0.27936,0.12672,0.0432,0,0.04752
2004/5/1 4:15,0,0,0.17568,0.02736,0.46656,0.12672,0.07344,0,0.02016
2004/5/1 4:30,0,0,0.17136,0.02448,0.04752,0.1224,0.07776,0,0.07056
2004/5/1 4:45,0,0,0.16128,0.02448,0.24624,0.12096,0.07488,0,0.03744
2004/5/1 5:00,0.0216,0,0.55296,0.03456,0.46944,0.12816,0.07776,0,-0.03744
2004/5/1 5:15,0,0,0.83952,0.02448,0.11088,0.13392,0.0432,0,-0.02736
2004/5/1 5:30,0,0,0.36144,0.02448,0.16272,0.10944,0.07488,0,0.05616
2004/5/1 5:45,0,0,0.1656,0.02736,0.47232,0.108,0.07056,0,0.02448
2004/5/1 6:00,0,0,0.17136,0.02592,0.13536,0.10944,0.07488,0,0.06912
2004/5/1 6:15,0,0,0.17424,0.02304,0.14256,0.11376,0.07776,0,0.0576
2004/5/1 6:30,0,0,0.1728,0.03312,0.46944,0.11232,0.04032,0,0.03024
2004/5/1 6:45,0,0,1.0944,0.02448,0.1872,0.11376,0.07632,0,-0.05184
2004/5/1 7:00,0,0,0.45792,0.02448,0.08064,0.12096,0.07632,0,0.03744
2004/5/1 7:15,0,0,0.1728,0.03456,0.468,0.11232,0.06912,0,0.02736
2004/5/1 7:30,0,0,0.17136,0.02448,0.24912,0.11376,0.0432,0,0.05904
2004/5/1 7:45,0,0,0.18144,0.0216,0.0288,0.11664,0.07632,0,0.07056
2004/5/1 8:00,0,0,0.20448,0.03456,0.47088,0.1152,0.0792,0,0.02592
2004/5/1 8:15,0,0,0.29376,0.02448,0.50112,0.11088,0.07344,0,0.00144
2004/5/1 8:30,0,0,0.46368,1.03104,0.60192,0.11376,0.0792,0,-0.13536
2004/5/1 8:45,0,0,0.34704,0.02448,0.52704,0.11376,0.07488,0,-0.0288
2004/5/1 9:00,0.0576,0,0.48528,0.47088,0.50112,0.11376,0.07632,0,-0.06624
2004/5/1 9:15,0.0072,0,0.60192,0.0288,0.52704,0.11088,0.07632,0,0.00432
2004/5/1 9:30,0,0,0.60336,0.02304,0.50832,0.11232,0.07488,0,0.00864
2004/5/1 9:45,0,0,0.6048,0.0288,0.48384,0.108,0.07632,0,0.00432
2004/5/1 10:00,0.1008,0,0.97632,0.0288,0.4824,0.11664,0.26208,0,-0.08064
2004/5/1 10:15,0.108,0,0.89568,0.02736,0.24336,0.11376,0.07056,0,-0.01584
2004/5/1 10:30,0.0936,0,0.85968,0.02448,0.06768,0.25632,0.07488,0,-0.12384
2004/5/1 10:45,0,0,0.82224,0.02448,0.48384,0.42912,0.07488,0,-0.06912
2004/5/1 11:00,0.00288,0,0.73872,0.03024,0.46368,0.33264,0.07632,0,-0.04896
2004/5/1 11:15,0,0,0.81072,0.0216,0.0072,0.20016,0.07488,0,0.02448
2004/5/1 11:30,0,0,0.59616,0.02448,0.29088,0.20016,0.0432,0,0.02016
2004/5/1 11:45,0,0,0.59616,0.02448,0.47664,0.19872,0.07344,0,-0.00432
2004/5/1 12:00,0,0,0.59328,0.02592,0.2664,0.20448,0.07776,0,0.0144
2004/5/1 12:15,0,0,0.47952,0.0216,0.12816,0.19728,0.08064,0,0.04896
2004/5/1 12:30,0,0,0.45936,0.02304,0.49248,0.20016,0.0432,0,0.01152
2004/5/1 12:45,0,0,0.69408,0.0288,0.39168,0.19872,0.07776,0,0.00288
2004/5/1 13:00,0,0,0.64368,0.0216,0,0.20016,0.07488,0,0.05184
2004/5/1 13:15,0,0,0.5688,0.0288,0.36864,0.19728,0.07632,0,0.01296
2004/5/1 13:30,0,0,0.57744,0.0288,0.47376,0.19728,0.07056,0,-0.00144
2004/5/1 13:45,0,0,0.6552,0.02304,0.10512,0.19872,0.07632,0,0.0288
2004/5/1 14:00,0,0,0.58176,0.02448,0.19152,0.19872,0.03888,0,0.036
2004/5/1 14:15,0,0,0.60768,0.02304,0.47664,0.20016,0.072,0,-0.01728
2004/5/1 14:30,0.0144,0,0.65952,0.02592,0.27504,0.19872,0.072,0,-0.01152
2004/5/1 14:45,0,0,0.49968,0.0216,0.036,0.19872,0.07488,0,0.02736
2004/5/1 15:00,0,0,0.50256,0.02592,0.48816,0.19728,0.072,0,-0.00864
2004/5/1 15:15,0,0,0.49968,0.02736,0.43056,0.20016,0.07632,0,-0.00576
2004/5/1 15:30,0,0,0.47232,0.0216,0,0.19872,0.07488,0,0.04752
2004/5/1 15:45,0,0,0.48528,0.02304,0.37872,0.19584,0.03888,0,-0.03168
2004/5/1 16:00,0,0,0.44064,0.02304,0.4968,0.20016,0.07632,0,-0.0432
2004/5/1 16:15,0,0,0.44208,0.02304,0.47952,0.19872,0.06768,0,-0.04176
2004/5/1 16:30,0,0,0.44064,0.02448,0.14112,0.19584,0.06912,0,0.00864
2004/5/1 16:45,0,0,0.43488,0.02304,0.1728,0.20016,0.03888,0,0.00288
2004/5/1 17:00,0,0,0.43776,0.02592,0.4968,0.19728,0.07056,0,-0.04032
2004/5/1 17:15,0,0,0.43632,0.03312,0.46944,0.19584,0.07056,0,-0.0504
2004/5/1 17:30,0,0,0.46512,0.02592,0.18288,0.23184,0.072,0,0.00144
2004/5/1 17:45,0,0,0.44352,0.02304,0.12672,0.24192,0.03888,0,-0.01296
2004/5/1 18:00,0,0,0.4392,0.02448,0.49392,0.23904,0.072,0,-0.04896
2004/5/1 18:15,0,0,1.11312,0.02736,0.48096,0.23904,0.072,0,-0.12672
2004/5/1 18:30,0,0,1.836,0.03168,0.47232,0.21024,0.06336,0,-0.18144
2004/5/1 18:45,0,0,2.14128,0.0288,0.27504,0.19728,0.04464,0,-0.15408
2004/5/1 19:00,0.1728,0,2.17872,0.29664,0.0072,0.19728,0.07776,0,-0.15408
2004/5/1 19:15,0.1152,0,1.75248,0.87984,0.51408,0.19728,0.06912,0,-0.216
2004/5/1 19:30,0.1152,0,1.72224,1.22832,0.47664,0.19728,0.04032,0,-0.09072
2004/5/1 19:45,0.01152,0,2.16864,0.29376,0.17136,0.19584,0.06768,0,-0.15696
2004/5/1 20:00,0,0,2.17008,0.07632,0.13104,0.19728,0.07632,0,-0.13248
2004/5/1 20:15,0,0,2.23632,0.072,0.48384,0.19584,0.06624,0,-0.19584
2004/5/1 20:30,0,0,2.86848,0.08496,0.4752,0.19872,0.03888,0,-0.17856
2004/5/1 20:45,0,0,2.94048,0.07632,0.03888,0.19872,0.07056,0,-0.12096
2004/5/1 21:00,0,0,2.94048,0.07056,0.2664,0.19584,0.07056,0,-0.16128
2004/5/1 21:15,0,0,2.93904,0.06624,0.47664,0.19584,0.06624,0,-0.17856
2004/5/1 21:30,0,0,2.92896,0.07056,0.31824,0.19872,0.03888,0,-0.14544
2004/5/1 21:45,0,0,3.07008,0.06336,0,0.19584,0.07344,0,-0.11664
2004/5/1 22:00,0.0072,0,2.68272,0.07488,0.49248,0.19728,0.06912,0,-0.2088
2004/5/1 22:15,0.0648,0,2.5416,0.02736,0.47664,0.19728,0.03744,0,-0.23472
2004/5/1 22:30,0.108,0,2.664,0.02448,0.49248,0.19728,0.07056,0,-0.25776
2004/5/1 22:45,0.108,0,2.90448,0.02304,0.10656,0.24768,0.06912,0,-0.24624
2004/5/1 23:00,0.108,0,2.59488,0.02304,0.18864,0.38592,0.07488,0,-0.30672
2004/5/1 23:15,0.108,0,2.06064,0.0216,0.48096,0.396,0.36576,0,-0.324
2004/5/1 23:30,0.108,0,1.80432,0.03456,0.47232,0.41616,0.06768,0,-0.26352
2004/5/1 23:45,0.108,0,1.49472,0.03024,0.21888,0.21744,0.072,0,-0.16992
2004/5/2 0:00,0.0864,0,1.35504,0.0216,0.06624,0.19152,0.8424,0,-0.21888
2004/5/2 0:15,0,0,1.09872,0.02304,0.4824,0.24336,0.07056,0,-0.12816
2004/5/2 0:30,0,0,0.82368,0.02736,0.47232,0.2376,0.03744,0,-0.07632
2004/5/2 0:45,0,0,0.49392,0.0288,0.2448,0.14832,0.05616,0,0.0144
2004/5/2 1:00,0,0,1.00512,0.02304,0.05184,0.16992,0.05184,0,-0.02592
2004/5/2 1:15,0,0,1.4256,0.02448,0.47808,0.15696,0.036,0,-0.144
2004/5/2 1:30,0,0,1.4328,0.02736,0.4608,0.144,0.06624,0,-0.14256
2004/5/2 1:45,0,0,0.90432,0.0216,0,0.20736,0.07056,0,-0.036
2004/5/2 2:00,0,0,0.4176,0.02448,0.32544,0.324,0.072,0,-0.03024
2004/5/2 2:15,0,0,0.41328,0.02304,0.47088,0.324,0.07056,0,-0.05184
2004/5/2 2:30,0,0,0.4104,0.02304,0.1872,0.324,0.04032,0,-0.00432
2004/5/2 2:45,0,0,0.40032,0.02448,0.11664,0.324,0.07344,0,-0.01296
2004/5/2 3:00,0,0,0.396,0.02592,0.48672,0.29376,0.072,0,-0.04752
2004/5/2 3:15,0,0,0.39024,0.03024,0.48384,0.27072,0.03888,0,-0.04176
2004/5/2 3:30,0,0,0.39312,0.03456,0.5616,0.2592,0.06768,0,-0.06912
2004/5/2 3:45,0,0,0.39168,0.03456,0.55872,0.24336,0.07632,0,-0.06912
2004/5/2 4:00,0,0,0.38592,0.02592,0.46944,0.23184,0.06912,0,-0.02448
2004/5/2 4:15,0,0,0.3744,0.02592,0.5328,0.12384,0.03888,0,-0.00576
2004/5/2 4:30,0,0,0.37152,0.0288,0.51552,0.1224,0.06912,0,-0.00432
2004/5/2 4:45,0,0,0.40176,0.02448,0.48816,0.1224,0.06624,0,0.00288
2004/5/2 5:00,0,0,0.83808,0.0216,0.49536,0.12384,0.06912,0,-0.06336
2004/5/2 5:15,0,0,1.0872,0.02448,0.34272,0.1224,0.06912,0,-0.07632
2004/5/2 5:30,0,0,0.44928,0.0216,0,0.12384,0.03888,0,0.0576
2004/5/2 5:45,0,0,0.38592,0.02448,0.45072,0.12384,0.07632,0,-0.0072
2004/5/2 6:00,0,0,0.37728,0.03024,0.4752,0.12096,0.07344,0,0
2004/5/2 6:15,0,0,0.38016,0.02448,0.14688,0.1224,0.072,0,0.02736
2004/5/2 6:30,0,0,0.3816,0.02304,0.14112,0.1224,0.0432,0,0.04752
2004/5/2 6:45,0,0,0.3816,0.0288,0.47232,0.1224,0.072,0,-0.00432
2004/5/2 7:00,0,0,0.38448,0.02736,0.324,0.13248,0.07488,0,0.01584
2004/5/2 7:15,0,0,0.38736,0.0216,0,0.1224,0.07344,0,0.03888
2004/5/2 7:30,0,0,0.44784,0.03744,0.44352,0.1224,0.036,0,-0.00144
2004/5/2 7:45,0.0504,0,0.57312,1.18368,0.48816,0.1224,0.07488,0,-0.10656
2004/5/2 8:00,0.072,0,0.75024,0.6624,0.04896,0.12096,0.07344,0,0.0072
2004/5/2 8:15,0.0648,0,0.81216,0.02736,0.23616,0.12528,0.08928,0,-0.04464
2004/5/2 8:30,0.0072,0,0.75888,0.47232,0.50688,0.12384,0.07344,0,-0.13968
2004/5/2 8:45,0.0072,0,0.80064,1.21248,0.2808,0.12384,0.07776,0,-0.09936
2004/5/2 9:00,0,0,0.62784,0.0216,0.02304,0.12096,0.07632,0,0.04176
2004/5/2 9:15,0.02448,0,0.7128,0.0288,0.47232,0.13248,0.03888,0,-0.01152
2004/5/2 9:30,0.05616,0,0.57312,0.0288,0.42048,0.12528,0.07776,0,0.00432
2004/5/2 9:45,0.06336,0,0.57312,0.0216,0,0.1224,0.06768,0,0.04608
2004/5/2 10:00,0.05904,0,0.57744,0.03024,0.35136,0.12384,0.07056,0,0.00864
2004/5/2 10:15,0.0576,0,0.57888,0.02448,0.46512,0.1224,0.072,0,-0.0072
2004/5/2 10:30,0.05904,0,0.57024,0.0216,0.08208,0.12528,0.072,0,0.04752
2004/5/2 10:45,0.02304,0,0.60624,1.46592,0.2304,0.21168,0.03744,0,0.01008
2004/5/2 11:00,0.0288,0,0.75456,0.02736,0.48528,0.29232,0.27648,0,-0.07632
2004/5/2 11:15,0,0,0.87696,0.02304,0.24048,0.2808,0.07488,0,-0.01584
2004/5/2 11:30,0,0,0.94608,0.0216,0.06624,0.2808,0.07776,0,0.00144
2004/5/2 11:45,0,0,0.94896,0.02448,0.47664,0.2808,0.07776,0,-0.05328
2004/5/2 12:00,0,0,0.94032,0.02592,0.35568,0.28368,0.04032,0,-0.036
2004/5/2 12:15,0.0216,0,0.9072,0.0216,0.00144,0.28224,0.07344,0,-0.01008
2004/5/2 12:30,0.0936,0,1.14624,0.25632,0.4824,0.3024,0.07488,0,-0.11232
2004/5/2 12:45,0,0,0.49968,0.32832,0.47376,0.3024,0.07344,0,-0.04752
2004/5/2 13:00,0,0,0.5472,0.35712,0.08208,0.3024,0.04032,0,-0.00432
2004/5/2 13:15,0,0,0.6048,0.08496,0.22896,0.29952,0.07344,0,0.01872
2004/5/2 13:30,0.0144,0,0.81936,0.02304,0.47808,0.22176,0.06624,0,-0.03024
2004/5/2 13:45,0,0,0.58896,0.02304,0.18576,0.12384,0.07632,0,0.03456
2004/5/2 14:00,0,0,0.58464,0.0216,0.13392,0.1224,0.03888,0,0.04176
2004/5/2 14:15,0,0,0.5904,0.02592,0.48384,0.12384,0.07488,0,-0.00288
2004/5/2 14:30,0,0,0.5904,0.03024,0.29088,0.1224,0.07344,0,0.02736
2004/5/2 14:45,0,0,0.6264,0.02304,0.01872,0.1224,0.07344,0,0.06048
2004/5/2 15:00,0,0,0.65808,0.02448,0.4824,0.12528,0.03744,0,-0.00288
2004/5/2 15:15,0,0,0.74736,0.03024,0.46944,0.12096,0.07488,0,-0.02592
2004/5/2 15:30,0,0,0.93456,0.02448,0.24768,0.1224,0.07344,0,-0.0216
2004/5/2 15:45,0,0,1.15776,0.02304,0.05904,0.12384,0.03888,0,-0.0288
2004/5/2 16:00,0,0,1.14912,0.02448,0.4824,0.1224,0.06912,0,-0.07488
2004/5/2 16:15,0,0,1.13616,0.02736,0.43056,0.1224,0.072,0,-0.0576
2004/5/2 16:30,0,0,1.1592,0.0216,0,0.12096,0.072,0,-0.02304
2004/5/2 16:45,0,0,0.9144,0.02736,0.36432,0.11808,0.03888,0,-0.036
2004/5/2 17:00,0,0,0.85104,0.02448,0.47232,0.1152,0.07488,0,-0.04752
2004/5/2 17:15,0,0,0.91008,0.02448,0.1656,0.11232,0.06624,0,-0.00144
2004/5/2 17:30,0,0,0.84816,0.02304,0.144,0.21312,0.072,0,-0.04896
2004/5/2 17:45,0,0,0.45072,0.036,0.4752,0.20304,0.03888,0,-0.04464
2004/5/2 18:00,0,0,0.66096,0.03024,0.34128,0.11088,0.06912,0,-0.02448
2004/5/2 18:15,0.09216,0,1.14336,0.82656,0,0.11088,0.072,0,-0.0288
2004/5/2 18:30,0.1152,0,1.07424,1.75104,0.4392,0.11232,0.07056,0,-0.0648
2004/5/2 18:45,0.09216,0,1.0728,0.62064,0.46944,0.11232,0.03888,0,-0.09936
2004/5/2 19:00,0,0,1.39536,0.67824,0.14976,0.3024,0.06912,0,-0.14832
2004/5/2 19:15,0,0,2.21904,0.68832,0.20736,0.32976,0.07344,0,-0.30096
2004/5/2 19:30,0,0,2.17728,0.02304,0.48528,0.32832,0.07344,0,-0.23616
2004/5/2 19:45,0,0,2.06208,0.30816,0.4536,0.32832,0.07488,0,-0.25632
2004/5/2 20:00,0,0,0.95328,0.3816,0.0144,0.30384,0.036,0,-0.09792
2004/5/2 20:15,0,0,0.48096,0.21744,0.33408,0.27648,0.07056,0,-0.05472
2004/5/2 20:30,0,0,0.5328,0.02304,0.4752,0.27072,0.0648,0,-0.05328
2004/5/2 20:45,0.0288,0,1.58976,0.02592,0.17568,0.18576,0.0576,0,-0.12528
2004/5/2 21:00,0,0,3.41856,0.02448,0.13824,0.23184,0.05472,0,-0.2304
2004/5/2 21:15,0,0,3.36816,0.03312,0.47808,0.23616,0.06624,0,-0.24336
2004/5/2 21:30,0,0,3.52656,0.02736,0.34848,0.2376,0.07344,0,-0.2232
2004/5/2 21:45,0.1008,0,2.72016,0.0216,0,0.22752,0.07056,0,-0.14544
2004/5/2 22:00,0.0864,0,2.66688,0.02448,0.44496,0.22464,1.05552,0,-0.39312
2004/5/2 22:15,0,0,2.232,0.0288,0.48384,0.28656,0.07056,0,-0.23328
2004/5/2 22:30,0.0792,0,2.63808,0.0288,0.20736,0.16416,0.07056,0,-0.22032
2004/5/2 22:45,0.108,0,2.49408,0.0216,0.10224,0.11088,0.08352,0,-0.18576
2004/5/2 23:00,0.036,0,1.98432,0.02304,0.48672,0.20736,0.71568,0,-0.27504
2004/5/2 23:15,0,0,1.67904,0.02736,0.47232,0.31824,0.07056,0,-0.18144
2004/5/2 23:30,0,0,1.6632,0.02304,0.55152,0.29376,0.07056,0,-0.20592
2004/5/2 23:45,0,0,0.71712,0.02448,0.55872,0.31968,0.03744,0,-0.08784
2004/5/3 0:00,0,0,0.47664,0.03168,0.44928,0.12528,0.07488,0,-0.03024
2004/5/3 0:15,0,0,0.1872,0.0288,0.55728,0.15984,0.072,0,-0.00432
2004/5/3 0:30,0,0,0.17568,0.02592,0.52416,0.1512,0.06912,0,0.00432
2004/5/3 0:45,0,0,0.2088,0.02304,0.5112,0.22032,0.03888,0,-0.01008
2004/5/3 1:00,0,0,0.19296,0.03168,0.49248,0.2376,0.07344,0,-0.0072
2004/5/3 1:15,0,0,0.19008,0.02448,0.48672,0.2376,0.07056,0,-0.01008
2004/5/3 1:30,0,0,0.22032,0.03024,0.47232,0.2376,0.0648,0,-0.00864
2004/5/3 1:45,0,0,0.18288,0.0216,0.18144,0.21456,0.04032,0,0.0432
2004/5/3 2:00,0,0,0.17712,0.02304,0.1296,0.10944,0.06768,0,0.06624
2004/5/3 2:15,0,0,0.16992,0.02448,0.49104,0.11376,0.07344,0,0.0288
2004/5/3 2:30,0,0,0.1728,0.03168,0.46224,0.11232,0.072,0,0.02016
2004/5/3 2:45,0,0,0.17136,0.0216,0.12528,0.11232,0.03456,0,0.07632
2004/5/3 3:00,0,0,0.17424,0.02592,0.17136,0.11376,0.07056,0,0.05328
2004/5/3 3:15,0,0,0.17712,0.03456,0.47952,0.11088,0.06768,0,0.0216
2004/5/3 3:30,0,0,0.16992,0.03168,0.396,0.11232,0.07488,0,0.03312
2004/5/3 3:45,0,0,0.1728,0.0216,0,0.11232,0.03744,0,0.0864
2004/5/3 4:00,0,0,0.17424,0.03168,0.37296,0.11232,0.06912,0,0.0216
2004/5/3 4:15,0,0,0.17424,0.0288,0.47376,0.11376,0.07344,0,0.02448
2004/5/3 4:30,0,0,0.16992,0.02592,0.15408,0.11232,0.036,0,0.072
2004/5/3 4:45,0,0,0.17136,0.02448,0.1368,0.11232,0.07344,0,0.06912
2004/5/3 5:00,0,0,0.16704,0.03024,0.4752,0.11088,0.0648,0,0.02448
2004/5/3 5:15,0,0,0.17568,0.02448,0.33984,0.11664,0.07056,0,0.03744
2004/5/3 5:30,0,0,0.17424,0.0216,0,0.11232,0.04032,0,0.08064
2004/5/3 5:45,0,0,0.17568,0.02592,0.4464,0.108,0.06912,0,0.0216
2004/5/3 6:00,0,0,0.17136,0.02736,0.46512,0.1152,0.07344,0,0.02592
2004/5/3 6:15,0,0,0.51984,0.28656,0.04752,0.1152,0.03888,0,0.02736
2004/5/3 6:30,0,0,0.80064,0.02448,0.25344,0.10944,0.072,0,0.00144
2004/5/3 6:45,0,0,0.80352,0.03168,0.4752,0.11232,0.06768,0,-0.0288
2004/5/3 7:00,0,0,0.79344,0.47088,0.29232,0.12096,0.06912,0,-0.03312
2004/5/3 7:15,0,0,0.80208,0.0216,0,0.11232,0.0432,0,0.04896
2004/5/3 7:30,0.0288,0,0.72864,0.036,0.4608,0.1152,0.07632,0,-0.00288
2004/5/3 7:45,0,0,0.45072,0.02592,0.41904,0.10944,0.10656,0,0.02592
2004/5/3 8:00,0.0288,0,0.63504,1.22832,0.036,0.11232,0.0792,0,-0.02592
2004/5/3 8:15,0.0432,0,0.73728,0.30672,0.36288,0.11376,0.04032,0,-0.05616
2004/5/3 8:30,0.0936,0,0.93024,1.31616,0.49968,0.11232,0.53712,0,-0.15984
2004/5/3 8:45,0.036,0,1.1232,0.02448,0.32688,0.11088,0.60912,0,-0.09936
2004/5/3 9:00,0.0288,0,1.24416,0.0216,0,0.11088,0.76752,0,-0.09216
2004/5/3 9:15,0.0432,0,1.3104,0.43776,0.42768,0.11376,0.03888,0,-0.10512
2004/5/3 9:30,0,0,1.09296,0.34704,0.47232,0.11376,0.06912,0,-0.072
2004/5/3 9:45,0,0,1.21392,0.19872,0.22752,0.11232,0.07056,0,-0.04176
2004/5/3 10:00,0,0,1.22688,0.0216,0.06768,0.1152,0.072,0,-0.01152
2004/5/3 10:15,0,0,1.22832,0.02304,0.49248,0.11376,0.07488,0,-0.05904
2004/5/3 10:30,0,0,1.20528,0.03168,0.46224,0.10944,0.036,0,-0.05472
2004/5/3 10:45,0,0,1.20672,0.02304,0.01152,0.11376,0.072,0,0.00576
2004/5/3 11:00,0,0,1.1952,0.0288,0.29376,0.11232,0.07344,0,-0.04608
2004/5/3 11:15,0,0,1.19232,0.02592,0.48816,0.11088,0.07056,0,-0.06048
2004/5/3 11:30,0,0,1.19376,0.02448,0.38304,0.11088,0.03888,0,-0.0432
2004/5/3 11:45,0,0,1.19952,0.0216,0,0.23904,0.06912,0,-0.01872
2004/5/3 12:00,0,0,1.21104,0.02592,0.38736,0.32256,0.072,0,-0.08352
2004/5/3 12:15,0,0,1.21824,0.02736,0.48528,0.26784,0.06912,0,-0.08496
2004/5/3 12:30,0,0,1.21104,0.02736,0.27072,0.31824,0.036,0,-0.06048
2004/5/3 12:45,0,0,1.21104,0.0216,0.02304,0.32976,0.07056,0,-0.03024
2004/5/3 13:00,0,0,1.19952,0.02304,0.4824,0.31536,0.06768,0,-0.08928
2004/5/3 13:15,0,0,1.20528,0.03024,0.47808,0.29808,0.06768,0,-0.08928
2004/5/3 13:30,0,0,1.21248,0.02736,0.13536,0.30528,0.03744,0,-0.04752
2004/5/3 13:45,0,0,1.11744,0.02304,0.17856,0.31248,0.06912,0,-0.05472
2004/5/3 14:00,0,0,1.11312,0.20016,0.48096,0.14112,0.0648,0,-0.09072
2004/5/3 14:15,0,0,0.94176,0.35136,0.44784,0.11088,0.0648,0,-0.0936
2004/5/3 14:30,0,0,0.8424,0.36864,0.01296,0.11232,0.03168,0,-0.0432
2004/5/3 14:45,0,0,0.8424,0.02304,0.36576,0.11232,0.07056,0,-0.0288
2004/5/3 15:00,0,0,0.85392,0.0288,0.4752,0.11232,0.06192,0,-0.0432
2004/5/3 15:15,0,0,0.86112,0.02448,0.25776,0.11376,0.03456,0,-0.00864
2004/5/3 15:30,0,0,0.83808,0.02304,0.06912,0.11232,0.07344,0,-0.00864
2004/5/3 15:45,0,0,1.23696,0.02304,0.49248,0.11088,0.06336,0,-0.10224
2004/5/3 16:00,0,0,1.77408,0.0288,0.47232,0.11088,0.03456,0,-0.16848
2004/5/3 16:15,0,0,1.60416,1.31184,0.47808,0.16416,0.07056,0,-0.144
2004/5/3 16:30,0,0,1.83456,0.20016,0.4896,0.1944,0.06768,0,-0.19584
2004/5/3 16:45,0,0,1.764,0.0216,0.02736,0.2304,0.03744,0,-0.12384
2004/5/3 17:00,0.0216,0,1.01808,0.02304,0.29232,0.19872,0.06624,0,-0.05472
2004/5/3 17:15,0,0,0.92736,0.0288,0.48384,0.17136,0.07344,0,-0.072
2004/5/3 17:30,0,0,0.90864,0.03024,0.4824,0.10944,0.0432,0,-0.04608
2004/5/3 17:45,0,0,0.936,0.02592,0.28224,0.11232,0.06336,0,-0.02304
2004/5/3 18:00,0,0,0.94752,0.0216,0.02448,0.3384,0.06624,0,-0.0288
2004/5/3 18:15,0,0,0.92736,0.02448,0.48096,0.41616,0.0648,0,-0.0936
2004/5/3 18:30,0,0,1.188,0.0288,0.47664,0.23616,0.036,0,-0.0864
2004/5/3 18:45,0.12672,0,1.92096,0.036,0.52992,0.11088,0.06624,0,-0.15696
2004/5/3 19:00,0.1728,0,1.85904,0.036,0.55152,0.27648,0.0648,0,-0.21312
2004/5/3 19:15,0.1728,0,1.8936,0.03024,0.48528,0.324,0.036,0,-0.19296
2004/5/3 19:30,0.11664,0,2.33424,0.29808,0.58032,0.15408,0.06768,0,-0.27504
2004/5/3 19:45,0.0504,0,2.4048,0.3744,0.56592,0.22896,0.06624,0,-0.31248
2004/5/3 20:00,0,0,2.56176,0.17856,0.54,0.16416,0.06768,0,-0.29952
2004/5/3 20:15,0,0,2.37312,0.03168,0.52416,0.16848,0.036,0,-0.2304
2004/5/3 20:30,0.0648,0,2.40048,0.03312,0.50256,0.16128,0.06768,0,-0.27216
2004/5/3 20:45,0.1008,0,2.28528,0.02304,0.5112,0.15552,0.0648,0,-0.26208
2004/5/3 21:00,0.0504,0,2.2536,0.02736,0.48816,0.144,0.60768,0,-0.31248
2004/5/3 21:15,0,0,1.9224,0.0288,0.4968,0.13536,0.0648,0,-0.18288
2004/5/3 21:30,0,0,2.48832,0.02448,0.27792,0.17712,0.06048,0,-0.25776
2004/5/3 21:45,0,0,2.49264,0.02304,0.03456,0.17712,0.07056,0,-0.2232
2004/5/3 22:00,0.0144,0,2.49264,0.02448,0.4824,0.16992,0.03168,0,-0.288
2004/5/3 22:15,0.108,0,2.55744,0.02736,0.4896,0.29952,0.0648,0,-0.34992
2004/5/3 22:30,0.0576,0,2.5704,0.02592,0.30384,0.47952,0.3888,0,-0.396
2004/5/3 22:45,0,0,2.42496,0.0216,0.0072,0.44208,0.072,0,-0.24624
2004/5/3 23:00,0,0,2.35872,0.0216,0.48672,0.10944,0.03456,0,-0.20448
2004/5/3 23:15,0,0,2.18448,0.02304,0.48672,0.24048,0.06192,0,-0.19584
2004/5/3 23:30,0.0288,0,2.14416,0.0288,0.28224,0.23328,0.06336,0,-0.2016
2004/5/3 23:45,0.108,0,1.49472,0.0216,0.03456,0.2376,0.03744,0,-0.12096
2004/5/4 0:00,0.108,0,0.91872,0.02304,0.48096,0.2376,0.88272,0,-0.20016
2004/5/4 0:15,0,0,0.50832,0.02592,0.48528,0.21312,0.06768,0,-0.04464
2004/5/4 0:30,0,0,0.18432,0.02304,0.18144,0.11376,0.03744,0,0.05328
2004/5/4 0:45,0,0,0.17712,0.02448,0.1368,0.11088,0.0648,0,0.06336
2004/5/4 1:00,0,0,0.17568,0.02592,0.4824,0.11088,0.06768,0,0.01584
2004/5/4 1:15,0,0,0.16848,0.03168,0.46944,0.11232,0.0648,0,0.02016
2004/5/4 1:30,0,0,0.18,0.0216,0.01008,0.11088,0.036,0,0.07344
2004/5/4 1:45,0,0,0.17568,0.02448,0.29952,0.10944,0.06768,0,0.04752
2004/5/4 2:00,0,0,0.17424,0.02736,0.47808,0.11232,0.0648,0,0.01728
2004/5/4 2:15,0,0,0.1728,0.02592,0.30816,0.11088,0.03456,0,0.04608
2004/5/4 2:30,0,0,0.16992,0.0216,0,0.11088,0.06192,0,0.06768
2004/5/4 2:45,0,0,0.16416,0.02736,0.46944,0.11232,0.06192,0,0.02304
2004/5/4 3:00,0,0,0.17424,0.02592,0.47088,0.11088,0.06336,0,0.01728
2004/5/4 3:15,0,0,0.16992,0.02448,0.12096,0.10944,0.03744,0,0.06768
2004/5/4 3:30,0,0,0.17568,0.02592,0.16416,0.11376,0.06336,0,0.0504
2004/5/4 3:45,0,0,0.16272,0.02736,0.49104,0.11232,0.06336,0,0.02304
2004/5/4 4:00,0,0,0.1728,0.03168,0.38016,0.11232,0.03168,0,0.03744
2004/5/4 4:15,0,0,0.17136,0.0216,0,0.11232,0.06912,0,0.08208
2004/5/4 4:30,0,0,0.18576,0.02448,0.37152,0.11232,0.06768,0,0.02592
2004/5/4 4:45,0,0,0.17424,0.03168,0.47952,0.11232,0.036,0,0.0216
2004/5/4 5:00,0,0,0.17424,0.02304,0.17712,0.11232,0.06912,0,0.0504
2004/5/4 5:15,0,0,0.17424,0.02448,0.10656,0.10944,0.03456,0,0.07776
2004/5/4 5:30,0,0,0.17424,0.02448,0.47808,0.11376,0.072,0,0.01872
2004/5/4 5:45,0,0,0.17712,0.0288,0.41328,0.11232,0.06624,0,0.02736
2004/5/4 6:00,0,0,0.17136,0.0216,0,0.11232,0.03456,0,0.07776
2004/5/4 6:15,0,0,0.17424,0.02592,0.3528,0.11232,0.06912,0,0.03744
2004/5/4 6:30,0,0,0.16992,0.0288,0.47088,0.11376,0.06912,0,0.01872
2004/5/4 6:45,0,0,0.1728,0.02304,0.17712,0.11232,0.03456,0,0.0648
2004/5/4 7:00,0,0,0.1728,0.02448,0.10656,0.11808,0.06768,0,0.06048
2004/5/4 7:15,0,0,0.58896,0.62352,0.49104,0.1152,0.06912,0,0.06048
2004/5/4 7:30,0.08064,0,0.81648,1.43136,0.40752,0.11232,0.04032,0,-0.0864
2004/5/4 7:45,0.1944,0,1.03968,1.59552,0.05904,0.1152,0.06912,0,-0.19008
2004/5/4 8:00,0.18,0,0.7848,0.27648,0.49392,0.1152,0.07344,0,-0.00864
2004/5/4 8:15,0.12672,0,0.86832,1.97712,0.52416,0.10944,0.036,0,-0.1008
2004/5/4 8:30,0.0144,0,0.95328,0.02448,0.49536,0.11376,0.24912,0,-0.0576
2004/5/4 8:45,0.0072,0,1.10304,0.02448,0.38448,0.11376,0.53856,0,-0.09936
2004/5/4 9:00,0,0,0.76464,0.47664,0.02736,0.26928,0.03744,0,-0.05616
2004/5/4 9:15,0.0216,0,0.9216,0.27936,0.38304,0.32688,0.10944,0,-0.12096
2004/5/4 9:30,0.0288,0,1.25424,0.02304,0.4896,0.11088,0.06624,0,-0.0864
2004/5/4 9:45,0,0,0.9504,0.02304,0.18432,0.11088,0.06912,0,-0.0144
2004/5/4 10:00,0.036,0,0.93888,0.0216,0.11952,0.19728,0.07344,0,-0.02592
2004/5/4 10:15,0,0,0.70848,0.02448,0.48384,0.26784,0.06912,0,-0.0504
2004/5/4 10:30,0,0,0.71856,0.02736,0.41904,0.3672,0.07344,0,-0.06192
2004/5/4 10:45,0,0,0.71568,0.0216,0,0.36576,0.07056,0,-0.01296
2004/5/4 11:00,0,0,0.71568,0.02304,0.38304,0.37008,0.03888,0,-0.05616
2004/5/4 11:15,0,0,0.72432,0.02448,0.47664,0.29808,0.06768,0,-0.06192
2004/5/4 11:30,0.01152,0,0.72,0.02448,0.144,0.33408,0.06912,0,-0.0216
2004/5/4 11:45,0.0216,0,0.71568,0.02304,0.15984,0.30096,0.072,0,-0.03168
2004/5/4 12:00,0.02592,0,0.7488,0.0216,0.4968,0.32112,0.036,0,-0.06336
2004/5/4 12:15,0,0,1.0296,0.0288,0.34416,0.35136,0.06912,0,-0.07632
2004/5/4 12:30,0,0,1.02816,0.0216,0,0.34992,0.06768,0,-0.03312
2004/5/4 12:45,0,0,1.03104,0.02304,0.42192,0.34848,0.03456,0,-0.08928
2004/5/4 13:00,0.00144,0,1.01808,0.02448,0.48384,0.34848,0.07056,0,-0.0936
2004/5/4 13:15,0.0288,0,0.72144,0.02304,0.53712,0.35136,0.072,0,-0.10224
2004/5/4 13:30,0.02016,0,0.70992,0.0216,0.5616,0.29664,0.036,0,-0.09216